Theta_e
341 344 350 349 351 354 353 354 353 354 353 353 352 352 351 352 352 351 351 351 350 350 350 350 349 350 349 349 349 349 350 350 349 348 348 348 350 352 351 352 352 350 350 349 348 347 347 347 346 346 344 343 342 343 344 344 344 345 345 347 348 348 349 349 349 348 348 349 349 349 349 349 348 348 348 348 349 348 349 350 351 348 350 351 352
340 346 350 352 350 355 353 353 353 353 353 352 351 352 351 351 352 351 350 350 350 350 350 349 349 349 350 350 349 349 349 349 349 349 349 348 350 350 351 350 351 350 349 349 348 346 346 346 345 344 343 342 340 339 339 341 341 342 343 345 346 347 348 348 348 347 347 348 348 348 347 347 347 347 347 348 348 348 348 349 348 351 351 349 350
343 347 350 352 349 353 354 353 353 353 352 353 352 351 351 351 351 351 351 350 349 349 349 349 348 347 347 348 348 349 349 349 348 348 348 348 348 349 350 350 349 349 349 348 348 346 345 345 344 344 343 341 340 337 336 337 338 339 340 342 345 346 346 347 347 346 346 346 347 347 346 345 346 346 346 347 347 348 347 348 348 349 349 347 348
343 345 349 350 346 349 354 354 354 353 353 353 352 352 351 351 351 351 350 350 349 349 348 348 348 347 347 348 347 348 348 348 348 347 347 348 348 348 349 349 348 348 348 348 347 346 346 345 344 343 341 339 338 336 334 333 335 338 338 340 342 345 346 347 347 347 346 345 346 345 345 345 345 345 346 347 346 346 346 346 347 348 348 348 348
343 345 349 352 353 348 352 353 354 354 353 353 352 352 352 351 351 350 350 350 349 349 348 347 347 346 347 347 347 347 347 347 347 347 347 347 348 347 348 348 348 348 348 348 347 346 346 345 343 341 339 338 336 334 333 332 333 335 337 339 341 343 344 346 346 346 345 345 344 344 345 346 347 345 346 347 346 345 345 344 344 345 347 347 348
343 346 349 350 351 354 348 354 354 354 353 353 352 352 352 351 350 350 350 349 349 348 348 347 347 346 346 346 346 346 346 346 346 345 346 346 347 347 347 347 348 348 347 347 347 346 345 343 339 338 337 334 334 334 333 334 335 335 336 339 341 342 343 344 346 344 344 343 343 346 345 347 346 346 346 346 345 344 344 344 344 344 344 345 346
342 346 349 349 351 351 345 353 354 354 353 353 353 353 352 351 350 350 350 349 349 348 347 347 346 346 345 345 345 345 346 346 345 346 346 346 346 346 347 347 347 347 346 346 346 345 344 343 339 337 335 332 331 332 334 334 335 335 336 338 341 342 342 343 343 342 342 344 345 345 345 345 347 349 345 344 345 345 344 344 344 344 344 343 343
344 347 349 349 351 349 345 352 354 354 353 353 353 353 352 351 350 350 350 349 349 348 347 347 346 346 345 345 345 345 346 346 345 346 346 346 346 346 346 347 347 346 346 345 345 344 343 342 339 338 335 332 330 330 333 334 334 336 336 338 341 341 342 342 342 341 341 342 346 345 345 345 348 348 344 345 345 345 344 344 344 345 344 342 343
342 346 349 349 350 344 344 350 354 353 353 353 352 352 352 351 350 350 350 349 349 348 348 347 346 345 345 345 345 345 345 345 346 345 345 345 345 345 346 347 346 345 344 343 343 342 341 341 339 338 336 332 330 330 331 333 334 335 336 337 339 339 339 340 340 340 342 345 344 343 344 344 346 346 345 344 344 344 344 344 344 343 342 342 342
342 346 349 348 350 342 346 349 353 353 353 353 352 352 352 351 350 350 350 349 349 348 348 347 345 345 344 344 344 345 346 345 346 345 344 344 345 345 346 346 345 345 343 342 341 340 340 339 339 338 335 331 329 329 330 331 332 334 336 337 337 337 338 339 339 342 343 343 343 344 345 345 344 345 344 344 344 344 344 342 342 343 342 343 342
342 345 349 347 349 340 348 350 352 352 353 353 352 352 352 351 350 350 349 349 349 348 348 348 346 345 344 344 345 345 345 346 346 345 344 344 344 345 346 345 345 344 342 342 341 344 343 341 339 337 333 329 327 328 329 330 331 332 335 336 337 337 337 338 339 341 342 341 341 343 344 342 344 346 345 344 344 343 343 343 344 342 341 342 342
341 344 347 347 345 339 346 348 352 352 353 353 352 352 352 351 350 350 350 349 349 348 347 347 348 346 344 345 345 345 346 346 346 345 344 344 344 345 345 345 344 342 342 341 341 342 342 341 339 335 331 328 326 327 327 329 330 330 333 335 335 334 333 333 337 338 341 340 341 342 342 340 342 343 344 344 343 344 343 343 343 343 343 343 342
341 342 344 346 349 338 343 346 348 352 353 352 352 352 351 351 350 350 349 349 348 348 347 347 347 347 346 346 346 346 346 346 345 345 345 345 345 345 345 344 343 342 341 340 339 340 340 340 337 334 331 327 326 326 327 329 329 329 331 333 333 331 330 330 336 336 338 339 340 341 342 343 343 344 341 342 343 343 342 342 342 344 343 342 342
339 341 343 344 345 342 337 342 346 350 352 352 352 352 352 351 350 350 349 349 348 348 348 347 347 347 346 346 346 346 346 346 345 345 345 344 345 345 344 344 343 342 340 339 338 338 339 339 336 334 331 327 325 325 327 328 328 329 330 331 330 330 328 331 334 336 337 337 339 340 340 340 341 343 339 340 340 341 340 340 341 342 342 341 342
338 341 342 344 344 347 337 336 341 344 347 350 350 351 351 350 350 350 349 349 349 349 348 347 347 347 346 346 346 346 347 347 345 345 344 344 345 345 344 343 342 341 339 338 337 338 340 338 336 333 330 327 325 325 326 326 327 328 330 330 329 327 326 334 336 336 337 337 338 339 340 340 341 340 337 337 339 338 338 338 338 339 339 339 339
338 338 340 341 344 346 347 340 333 335 342 345 347 348 349 350 349 350 349 349 349 349 348 348 348 347 347 346 346 346 347 346 345 345 342 342 342 343 343 342 342 340 339 338 340 340 339 337 334 332 329 327 325 325 325 325 325 327 329 328 326 325 323 327 335 335 334 335 337 338 338 339 339 337 335 337 336 336 335 336 336 337 337 337 337
335 338 339 339 341 343 344 346 343 331 333 337 341 343 344 347 348 348 348 348 348 349 349 348 348 348 348 347 347 345 345 345 344 345 343 342 341 340 341 342 341 340 339 339 339 339 337 335 333 331 329 326 324 323 324 324 324 326 327 325 324 323 323 324 334 334 333 336 337 337 337 339 339 337 337 336 336 335 335 335 335 334 334 335 336
332 335 336 338 339 340 342 344 346 347 348 341 335 337 342 344 344 344 345 345 346 347 347 347 347 346 345 343 341 341 343 345 344 343 343 342 341 341 341 341 341 340 339 339 338 337 335 334 332 330 328 326 324 323 322 322 322 324 324 323 321 322 322 323 330 331 333 333 334 336 336 335 337 338 337 336 335 334 334 333 333 331 331 332 333
322 323 323 324 327 336 340 342 344 346 347 347 348 348 334 340 340 341 342 342 343 344 344 342 342 342 339 337 337 336 337 337 341 341 340 339 337 339 341 342 340 339 340 339 337 337 335 333 332 330 328 326 324 323 322 320 321 321 322 321 321 319 318 324 327 329 330 330 333 333 334 334 336 336 337 336 335 334 334 332 331 330 330 330 330
316 315 316 316 319 325 331 339 341 343 345 346 347 348 337 332 337 337 337 339 340 340 340 337 337 333 331 330 329 336 332 339 328 338 335 336 334 336 339 341 339 338 339 338 338 337 335 333 331 329 327 324 322 320 318 318 317 318 318 318 318 317 322 323 324 324 326 327 329 332 330 333 334 334 334 334 333 333 332 332 331 330 330 329 328
314 314 314 314 316 316 322 327 336 340 342 345 346 347 347 332 334 333 333 334 336 336 337 331 327 324 327 324 327 349 347 344 345 343 329 343 329 326 336 338 338 339 339 338 337 336 335 333 331 328 325 320 317 315 315 315 313 314 315 315 314 318 319 320 321 320 322 324 328 330 327 331 333 334 333 333 332 332 330 328 328 329 329 327 327
312 313 314 313 314 315 316 319 327 332 339 342 344 345 346 338 348 348 347 342 334 332 342 347 337 349 327 338 345 343 343 345 344 338 343 342 337 322 329 335 337 335 337 338 337 335 334 333 330 327 323 319 315 323 316 312 311 312 312 312 314 316 317 317 317 318 319 321 325 321 325 330 331 332 332 331 330 330 328 327 326 329 328 326 324
310 311 313 313 314 315 316 316 320 328 331 339 342 344 345 346 347 345 346 337 342 346 346 347 347 346 346 346 341 343 343 343 344 340 341 330 342 321 326 331 334 333 334 336 336 335 334 333 330 326 322 318 325 322 317 313 312 308 309 311 311 312 315 314 315 315 315 313 321 316 321 326 330 331 331 330 330 329 327 326 327 327 326 326 326
308 310 311 313 314 315 315 316 317 320 330 335 340 343 344 345 345 345 345 346 344 347 347 346 346 347 346 345 344 343 344 344 329 324 332 341 339 322 323 326 327 326 327 333 332 334 334 332 328 324 323 325 327 321 316 312 309 309 310 308 309 311 312 311 311 312 311 313 311 313 315 320 325 329 332 331 329 328 327 326 326 328 327 326 327
308 309 313 312 314 315 316 317 318 319 327 334 338 340 343 344 343 344 345 346 346 345 345 346 346 347 346 345 345 345 345 343 343 342 341 340 341 341 340 338 337 337 326 338 336 336 333 333 329 326 329 328 324 320 317 313 311 309 308 308 309 310 311 311 310 310 311 311 311 312 314 316 318 323 328 331 330 329 327 326 326 327 327 327 326
309 310 311 312 314 315 317 318 319 319 325 333 337 339 340 343 344 343 341 342 342 343 343 344 343 344 342 342 342 342 343 342 343 343 340 341 340 338 337 338 338 337 335 337 337 335 334 333 332 330 328 327 322 320 316 314 312 309 308 308 308 309 309 309 309 310 310 311 311 309 313 316 315 316 321 326 329 330 329 327 325 325 327 327 326
308 309 310 312 313 314 316 318 319 320 323 333 338 339 340 341 341 343 342 343 340 339 342 341 342 345 344 343 342 342 341 341 340 341 342 341 340 338 338 338 338 337 336 336 335 334 332 332 331 330 327 323 320 317 315 311 312 311 309 309 308 308 309 309 309 309 309 310 311 305 310 314 314 314 316 320 325 329 330 328 326 326 327 327 326
308 308 310 311 313 312 313 320 320 318 325 333 336 338 340 340 342 340 338 340 340 341 340 340 341 341 339 339 338 340 340 340 340 339 339 339 339 338 337 337 337 336 334 331 332 331 331 331 332 329 325 323 320 319 317 316 314 314 313 311 310 309 309 308 309 309 309 310 311 309 308 312 312 314 316 317 320 324 328 330 330 326 326 326 326
306 306 308 310 311 311 315 320 322 322 329 332 335 337 340 337 340 341 340 334 338 339 338 338 337 337 337 337 338 338 339 338 338 338 340 339 338 337 336 335 335 335 333 330 328 329 329 330 330 327 327 325 323 322 320 318 318 317 315 313 312 311 310 309 309 309 310 310 310 310 307 310 312 313 314 314 317 321 325 329 329 328 326 325 326
304 306 306 308 309 310 317 320 323 325 331 333 334 335 337 338 337 332 334 335 332 330 331 330 328 329 331 334 334 334 336 337 336 336 334 332 331 330 330 330 333 334 334 331 330 329 329 327 326 325 325 325 325 324 321 321 319 318 316 316 314 311 310 309 309 309 309 310 310 311 306 308 310 313 313 314 315 318 321 326 329 329 331 334 334
304 304 305 306 307 311 317 320 323 326 331 331 331 331 328 327 328 327 327 327 326 326 326 326 325 325 327 329 329 328 331 333 335 335 332 329 329 330 328 329 333 331 331 332 330 328 325 326 325 325 323 324 325 321 322 323 321 319 316 316 313 313 312 312 312 310 309 309 310 310 313 306 306 310 312 313 314 316 319 322 325 329 330 332 333
303 302 304 305 308 309 315 319 321 323 325 325 324 322 322 321 322 323 321 322 324 322 322 322 319 321 324 324 325 326 328 328 329 331 331 328 327 327 327 327 327 326 325 325 323 323 321 319 318 317 320 322 319 319 320 322 321 318 317 314 313 314 314 314 313 312 310 310 309 309 309 310 308 307 310 312 313 314 316 318 321 324 326 328 330
302 302 303 306 306 309 313 318 320 320 320 320 319 319 319 318 317 318 317 317 318 319 319 319 319 319 320 321 322 323 325 327 326 325 324 323 322 322 321 321 321 323 322 321 322 322 320 319 317 316 316 317 320 319 320 320 320 318 317 315 316 315 314 314 313 311 310 309 308 308 308 308 309 309 307 308 311 313 314 316 318 320 322 324 326
300 302 304 304 306 308 312 315 316 315 315 315 315 315 313 313 313 313 314 314 313 313 314 315 315 316 317 318 321 323 323 325 324 322 323 323 321 320 319 318 318 318 319 320 319 318 318 317 316 319 315 317 317 316 318 320 319 319 318 316 316 315 314 313 311 309 308 308 307 308 307 307 307 308 310 309 308 310 313 314 316 317 319 322 323
300 302 302 303 306 308 310 310 310 311 310 309 309 309 309 309 309 308 309 311 310 308 307 310 312 312 313 313 315 317 320 321 320 320 320 320 318 316 316 317 318 319 319 319 319 319 318 316 316 319 317 315 314 312 313 316 316 317 316 315 315 314 313 312 310 309 308 308 307 307 307 306 306 307 308 307 308 309 309 311 313 314 316 317 318
299 299 301 303 305 306 308 308 308 307 307 307 306 306 305 305 305 305 306 307 306 306 304 305 308 308 308 310 311 312 314 316 319 319 318 317 316 315 315 315 316 318 318 317 317 317 316 315 315 318 318 313 312 313 313 314 315 316 315 314 313 312 312 311 310 309 308 306 307 307 306 306 306 305 304 306 307 308 305 308 310 312 313 313 315
298 298 300 302 303 304 305 306 306 307 306 305 304 303 303 302 301 301 301 302 301 302 302 303 303 305 305 305 307 309 311 312 313 315 315 315 315 314 313 314 314 314 312 311 311 314 314 312 310 310 313 311 307 307 307 307 309 311 311 311 311 309 310 309 308 307 307 307 306 306 305 306 305 304 305 305 305 306 307 305 307 308 309 309 311
298 299 300 302 303 303 304 305 306 306 305 304 303 302 302 302 301 300 300 299 299 300 300 301 301 301 303 303 304 306 308 310 310 311 310 310 310 310 310 311 312 311 310 310 310 311 312 312 308 306 308 308 306 304 304 304 307 310 311 310 309 309 308 308 307 304 305 304 305 305 304 304 305 305 304 305 305 305 305 306 306 307 307 306 309
298 299 300 301 303 303 303 304 305 305 304 304 304 303 302 301 301 301 300 299 298 298 299 299 299 300 300 302 303 304 304 307 308 309 309 308 308 308 308 308 309 308 308 308 306 306 307 307 308 304 302 301 301 301 301 304 307 309 309 309 309 308 308 306 305 304 304 306 305 304 306 304 304 304 304 304 303 304 304 305 304 305 305 307 307
298 299 300 301 302 303 303 303 303 304 305 305 306 305 304 302 301 300 299 298 298 297 298 298 298 298 299 300 301 302 303 304 305 306 306 306 307 306 306 307 307 306 305 304 304 304 305 305 304 305 304 303 302 303 303 304 306 309 308 310 309 307 306 304 304 304 305 306 305 304 303 303 303 303 303 303 303 303 303 303 302 303 304 304 305
297 298 299 299 300 301 302 301 302 303 305 305 305 305 304 301 300 299 297 297 297 297 296 296 297 297 298 299 300 300 301 302 302 304 304 303 304 304 305 305 305 305 304 303 304 305 306 307 306 304 304 302 301 303 303 305 306 307 308 308 308 307 305 303 303 305 305 304 303 303 302 302 302 302 302 303 304 304 303 303 302 302 303 303 303
295 296 297 298 298 300 300 300 301 301 302 302 302 301 300 300 299 297 296 296 296 296 295 295 295 296 296 297 298 298 299 299 300 301 301 302 302 302 302 302 303 303 303 303 303 302 304 305 307 305 305 303 300 301 302 304 304 301 301 302 304 306 305 303 303 304 304 303 304 303 302 303 302 302 303 303 304 303 303 302 302 302 303 303 302
295 295 296 298 298 299 299 300 301 301 301 301 301 299 299 299 298 296 295 294 294 295 294 294 294 294 294 295 295 296 297 297 298 298 299 300 300 300 300 300 301 301 301 300 301 301 301 302 303 304 303 303 301 301 301 302 299 301 303 302 301 299 303 301 303 303 301 304 304 301 302 303 302 302 302 302 302 302 302 302 302 302 302 302 302
294 295 295 296 297 298 298 299 299 299 299 298 297 297 297 297 297 296 296 295 293 294 294 294 293 293 292 293 293 294 294 295 296 296 297 297 298 298 299 299 299 300 299 298 298 298 299 300 301 301 303 301 300 299 301 301 300 299 297 298 298 298 297 299 297 302 302 303 301 301 302 301 299 299 300 300 300 301 301 301 301 301 301 301 302
293 293 293 294 295 296 297 298 298 298 298 297 297 296 296 295 295 295 296 295 295 294 293 291 291 291 291 291 291 292 293 293 293 294 294 295 296 296 297 297 297 298 298 297 296 297 297 298 299 299 300 299 298 299 299 299 299 300 298 297 297 297 295 295 297 300 301 300 300 300 300 299 297 296 298 298 299 298 298 299 300 300 301 301 301
291 291 292 293 295 296 296 297 297 297 297 298 299 299 297 296 296 295 294 292 290 290 288 288 289 289 288 290 290 291 291 291 292 292 292 292 293 293 294 294 294 294 295 295 295 295 295 296 297 297 297 298 296 295 296 298 297 298 299 298 297 293 292 293 294 290 296 299 298 299 298 297 296 295 297 297 296 297 297 296 297 298 300 300 301
290 291 291 292 293 294 295 296 296 296 296 296 297 297 296 295 294 293 292 291 288 288 289 289 289 289 290 289 289 290 290 290 290 291 291 291 292 292 292 292 292 292 292 292 291 291 292 293 294 294 295 296 295 292 293 294 293 294 297 297 297 297 297 292 287 288 285 291 295 295 295 295 295 295 295 295 295 295 295 295 296 297 298 299 299
289 290 291 291 292 292 294 294 294 294 294 295 294 295 293 293 292 291 290 289 288 287 288 288 289 289 289 289 289 288 289 290 289 290 290 290 290 290 291 291 290 291 290 290 290 291 291 291 291 291 291 292 293 291 291 292 289 290 293 293 293 295 296 295 294 289 287 284 286 291 293 293 294 295 295 293 295 295 294 294 295 296 297 298 299
289 289 289 290 291 291 292 292 292 292 292 292 293 293 293 292 291 290 289 289 289 288 289 289 289 289 288 288 288 288 288 288 289 289 289 289 289 289 290 289 289 289 289 290 290 290 290 290 290 290 291 291 291 291 290 289 290 289 290 290 290 290 291 292 292 291 287 286 285 286 286 291 292 292 292 293 293 293 293 294 295 296 296 297 298
288 289 289 290 290 291 290 290 290 290 291 291 291 291 291 291 290 290 288 288 288 288 289 288 288 289 288 288 288 288 287 287 287 288 288 288 288 288 288 288 288 287 287 288 288 289 289 289 289 289 290 289 290 290 289 290 290 290 290 290 288 288 288 288 288 288 288 289 285 285 286 285 284 287 291 291 292 292 292 294 295 295 296 296 296
288 288 289 289 290 290 289 289 289 289 290 290 290 290 290 291 290 290 289 288 289 288 288 288 288 288 287 287 287 287 287 286 287 287 287 287 287 287 287 287 287 286 286 286 286 286 287 288 288 288 288 288 288 289 289 289 289 289 289 288 288 287 287 286 286 287 286 285 285 285 286 286 285 285 288 291 291 291 292 292 292 294 295 295 295
Wind_Speed
7 7 10 10 8 8 11 11 12 12 12 12 13 12 11 11 11 11 10 9 9 10 10 9 10 10 9 10 10 11 11 11 10 10 9 9 10 10 11 12 12 13 14 14 14 14 14 14 13 13 13 12 12 12 11 11 13 13 12 12 12 12 12 13 12 13 13 12 13 13 12 12 11 11 11 12 12 13 11 11 10 8 8 10 11
11 8 9 11 7 7 12 12 12 12 12 11 11 11 11 11 11 11 10 9 8 9 9 9 9 10 10 10 10 10 10 10 10 10 10 10 12 11 10 11 11 12 13 14 14 13 13 12 12 13 13 12 12 12 11 11 11 11 11 11 11 10 11 11 11 11 11 10 11 11 11 12 11 11 11 11 12 13 12 13 13 8 8 12 11
7 8 10 12 6 4 11 12 12 12 12 12 11 11 10 10 11 11 10 9 8 8 8 9 8 8 9 9 9 10 10 10 10 10 10 10 10 10 10 10 11 12 13 14 14 13 13 12 13 13 13 13 12 12 12 11 10 10 10 9 9 9 9 10 10 10 9 9 6 8 10 12 11 10 10 11 11 12 12 12 13 12 9 12 12
7 9 10 10 5 2 10 9 11 11 11 11 11 11 12 11 11 11 11 10 9 8 7 8 8 9 8 8 9 9 9 9 9 9 9 9 9 9 9 10 10 11 12 12 13 13 13 13 13 13 13 13 12 12 11 11 10 9 9 9 8 7 8 9 9 9 8 6 5 1 5 7 8 10 10 10 11 11 11 12 12 13 13 13 14
7 9 10 11 10 5 7 8 9 10 11 11 11 11 11 11 11 10 11 10 9 9 7 7 8 8 8 9 8 8 8 8 9 8 8 9 9 9 9 9 10 11 11 12 13 13 14 13 13 13 12 12 11 11 11 10 10 9 8 7 7 7 7 7 8 7 7 4 4 4 5 6 7 9 9 10 11 10 10 11 12 12 11 12 13
7 9 10 12 11 10 4 9 9 10 10 11 11 11 11 11 11 10 10 9 8 8 8 7 7 8 7 8 8 7 7 8 8 8 7 7 8 8 8 9 10 10 11 13 13 14 14 13 13 13 13 12 11 10 10 9 9 8 7 7 6 6 6 5 6 6 5 2 5 4 4 5 6 6 8 9 10 10 10 11 12 11 11 11 10
7 8 10 12 10 10 6 9 10 9 10 11 11 11 11 10 11 10 10 9 8 7 7 7 7 7 8 8 7 7 7 7 7 7 7 7 7 8 8 8 10 10 10 11 12 12 13 13 13 13 13 12 11 10 10 9 9 8 8 7 7 6 5 6 5 4 2 5 3 4 4 4 6 4 8 7 9 9 10 10 10 11 11 10 10
5 6 9 10 11 9 7 9 10 8 10 11 12 11 10 10 10 11 10 9 8 7 7 7 6 6 7 7 7 7 7 7 6 6 7 6 7 7 8 8 9 9 10 11 11 12 13 13 12 12 13 12 11 10 9 10 9 9 8 7 8 7 6 6 6 5 6 1 3 4 4 4 5 4 8 9 9 9 9 10 10 10 10 11 9
5 7 8 9 9 8 5 8 9 8 9 10 11 10 10 10 10 10 10 10 8 8 7 6 7 6 6 7 6 7 6 6 6 6 6 6 5 7 7 8 9 8 10 10 10 10 10 13 11 12 12 12 11 10 10 10 10 9 9 8 8 7 6 6 5 2 2 3 2 4 4 4 5 5 9 9 9 8 8 6 9 9 11 10 9
4 5 6 8 8 6 4 5 8 8 8 10 11 11 11 10 10 10 10 10 8 8 7 7 7 6 7 7 6 6 7 7 6 6 5 5 5 5 6 8 8 6 7 8 9 8 10 10 10 10 12 11 10 10 10 10 10 10 9 9 8 7 5 5 3 2 2 2 3 5 4 8 4 5 8 8 9 9 8 9 9 8 6 6 9
3 4 5 7 7 6 3 3 6 7 8 8 10 11 11 11 10 10 10 9 8 8 8 7 6 7 7 6 6 7 7 7 7 7 5 5 5 5 6 7 6 5 7 9 9 12 12 10 10 10 11 11 10 10 10 10 10 10 9 10 9 8 6 5 6 2 2 2 3 3 4 6 4 6 9 9 9 8 6 6 4 4 6 8 9
5 3 5 6 7 3 3 3 3 7 7 8 10 10 11 11 11 10 10 10 9 7 8 8 8 6 7 8 7 6 6 6 6 6 6 5 5 6 7 7 6 9 10 10 10 9 10 9 9 10 10 10 9 9 10 9 9 9 9 9 10 8 6 3 2 2 2 2 3 3 3 3 5 8 9 9 8 9 8 8 7 7 7 8 9
4 4 3 5 7 5 3 4 2 5 7 8 10 10 11 11 11 11 10 10 9 7 7 7 8 6 6 6 7 6 6 6 6 5 5 5 5 7 8 7 8 9 10 9 9 9 8 8 9 10 10 10 9 9 9 9 9 9 9 9 9 7 6 6 1 1 2 1 2 1 2 2 3 6 5 8 10 10 10 9 8 9 8 7 8
3 4 5 5 5 5 2 2 3 3 6 7 8 9 10 10 10 10 9 9 9 8 7 7 7 7 6 6 6 5 5 6 6 5 5 5 5 7 8 8 8 9 8 8 8 8 8 8 9 10 10 9 9 8 9 9 9 8 8 8 8 6 5 1 3 2 2 2 2 2 2 1 5 8 4 7 7 8 8 8 8 9 9 8 10
2 3 3 4 5 7 2 3 2 2 3 7 7 8 9 11 11 10 10 9 9 8 8 7 7 7 7 5 5 5 4 6 5 4 4 4 6 7 7 7 7 7 8 7 7 9 9 9 9 10 9 9 9 9 8 9 8 8 9 8 7 6 8 2 2 3 3 2 2 1 2 2 8 5 2 3 5 7 6 6 7 7 7 9 9
2 2 1 2 3 5 6 5 2 2 2 4 7 7 6 8 8 9 8 8 8 8 7 6 5 6 6 4 3 2 4 5 6 5 4 2 3 6 7 6 7 7 6 8 11 10 9 9 9 9 9 9 9 9 8 8 8 8 9 8 8 7 7 7 2 2 2 2 1 1 1 4 10 6 2 7 7 5 6 6 6 6 6 6 6
5 2 2 0 2 3 6 8 7 3 2 2 5 7 7 6 7 7 7 6 7 7 7 6 5 5 4 5 2 2 3 4 4 5 5 3 5 3 5 6 6 6 7 10 10 10 10 9 9 9 9 9 9 9 8 7 7 7 8 7 8 7 7 8 2 2 3 3 2 2 2 5 8 7 6 6 5 6 6 6 6 6 6 6 7
8 8 5 3 2 3 4 6 8 8 9 5 3 6 8 6 7 7 6 7 6 6 6 5 4 2 4 5 5 4 3 4 4 3 4 4 4 3 4 5 5 6 10 10 11 11 10 10 9 9 9 9 9 9 8 8 7 7 7 7 6 6 5 7 3 2 3 2 1 1 2 8 7 9 8 6 6 5 5 5 6 6 6 6 6
7 8 8 9 9 6 3 4 5 8 10 9 9 7 7 8 5 6 5 6 6 6 6 5 4 3 4 5 5 5 5 6 5 4 4 5 5 4 4 5 5 6 10 11 11 11 12 10 9 9 9 9 9 9 9 9 8 8 8 7 5 5 3 3 4 4 3 2 3 2 6 12 7 5 5 6 5 5 5 5 5 5 5 5 6
5 6 5 6 5 7 7 4 4 5 7 8 8 9 6 7 7 3 5 5 5 5 5 6 5 6 6 5 4 4 6 7 7 3 5 5 5 5 4 2 2 3 9 10 11 12 12 11 9 9 8 8 8 8 8 9 9 8 8 6 6 6 2 3 4 4 3 4 4 3 10 12 10 4 4 4 4 5 5 5 5 5 4 5 5
3 5 6 5 4 4 5 5 5 4 6 7 7 8 5 4 6 7 4 5 6 4 4 5 5 6 6 6 4 4 5 4 6 4 5 5 6 5 4 4 4 3 8 9 11 13 13 12 9 8 8 7 6 7 8 8 8 8 6 5 6 2 4 4 4 4 4 4 4 6 14 13 10 7 5 5 5 5 5 6 5 4 4 4 4
4 4 5 6 5 4 4 3 3 5 4 5 5 6 6 4 9 9 8 6 4 5 5 5 5 4 4 5 6 5 5 5 4 4 4 5 6 5 4 6 7 7 7 8 11 12 12 12 10 8 8 6 1 0 3 6 6 5 4 4 2 4 4 4 4 4 5 4 4 9 14 14 10 8 7 5 5 6 6 6 5 5 4 5 5
6 5 5 7 5 5 5 5 4 4 5 5 5 6 7 7 5 3 5 7 8 7 8 6 7 6 5 6 6 5 5 5 3 0 2 3 3 3 3 7 7 7 7 9 11 11 11 12 11 9 8 6 1 1 2 1 1 4 2 2 3 3 3 4 4 4 4 5 4 11 12 13 13 10 8 6 5 5 6 6 5 4 4 4 4
6 6 5 4 5 5 5 5 5 5 4 3 4 6 6 6 6 4 4 6 6 6 7 8 6 6 5 5 5 5 6 5 5 6 3 5 4 5 4 4 7 7 8 8 10 9 9 11 10 9 6 2 2 1 2 1 2 2 2 2 2 2 3 3 3 3 3 4 5 10 11 11 12 12 12 10 7 5 5 6 5 4 3 4 4
5 6 4 5 7 6 5 4 4 4 4 3 4 5 5 5 6 7 6 2 1 5 6 7 7 7 7 7 6 5 6 5 5 4 5 5 4 4 5 5 5 6 8 4 5 5 5 5 4 4 2 2 2 2 2 2 2 2 2 2 2 2 2 2 2 2 3 3 5 8 9 10 10 11 11 11 9 8 5 5 6 5 4 3 3
6 5 7 7 7 7 6 5 5 4 4 4 4 4 5 5 5 4 4 5 5 4 2 3 6 6 6 6 5 6 7 5 4 5 5 5 5 3 3 5 7 6 6 4 5 5 2 3 3 3 2 2 2 2 2 3 2 3 3 3 3 2 2 2 2 2 2 2 4 7 7 9 10 10 10 10 11 10 9 5 4 5 5 4 2
6 7 7 7 7 8 7 6 5 3 5 5 4 4 5 4 4 2 4 3 2 2 2 2 2 2 4 3 5 5 6 6 6 5 5 5 5 5 4 4 6 5 5 6 6 5 3 3 2 2 3 3 3 2 2 1 2 2 2 2 3 3 3 2 2 2 2 2 3 6 6 7 9 9 10 10 10 10 10 9 4 4 6 7 4
7 9 8 8 8 10 9 8 5 3 5 6 5 5 4 4 2 4 3 2 1 3 3 3 3 3 3 2 4 5 5 5 5 5 6 5 5 4 3 3 4 3 1 2 1 0 2 3 1 3 3 2 2 2 2 2 1 1 1 2 2 2 3 3 2 2 2 2 1 4 4 6 7 8 9 10 10 10 11 10 11 4 5 6 3
9 10 9 8 9 9 10 8 4 2 4 6 6 4 3 3 3 2 2 4 3 3 5 5 5 5 4 3 1 4 3 3 4 3 3 3 3 3 2 2 2 3 3 2 2 2 2 2 2 2 2 2 2 1 1 1 1 1 2 2 2 2 2 2 2 2 2 2 2 3 3 4 6 7 8 9 9 10 11 12 11 8 6 5 6
8 9 9 8 9 11 10 9 5 1 5 6 5 4 4 5 6 7 5 5 7 7 7 6 6 5 6 5 5 4 3 3 3 2 1 3 2 3 4 4 1 1 2 4 3 2 1 0 1 2 2 2 2 1 1 1 1 1 2 3 3 3 2 2 2 2 2 2 2 1 3 4 5 6 7 8 8 8 9 10 11 11 13 14 14
8 9 8 8 9 10 10 9 7 4 2 5 5 5 8 8 7 6 7 7 7 8 7 6 6 7 7 7 6 6 5 4 2 3 4 5 4 3 2 1 1 3 3 2 1 2 2 2 2 2 1 2 0 1 1 1 2 2 2 3 3 3 3 3 3 3 3 2 3 3 1 3 5 5 6 7 8 7 8 9 10 12 13 14 14
7 8 7 7 8 9 9 10 9 7 7 8 7 8 8 8 8 8 8 8 7 6 7 7 7 7 8 7 7 7 6 6 7 6 6 6 5 5 6 6 5 3 3 4 3 3 3 3 4 5 4 3 3 2 3 2 2 2 2 2 2 3 3 4 4 4 4 4 4 4 4 3 2 2 4 6 7 7 7 7 8 10 11 12 13
5 6 7 7 8 7 7 10 10 10 10 10 8 8 8 7 8 8 7 6 7 7 8 8 8 7 7 8 8 8 7 7 8 8 7 7 6 6 5 5 4 3 4 5 4 3 3 4 4 3 3 2 1 2 2 2 2 2 1 2 2 2 3 4 3 3 4 4 4 4 4 4 4 1 2 3 5 6 7 7 8 8 10 11 12
6 6 7 8 6 4 4 6 9 11 10 9 8 8 8 7 7 7 6 8 8 8 8 7 7 6 7 8 8 9 8 7 7 7 6 7 7 6 5 4 3 4 4 4 4 3 4 3 2 1 2 2 3 3 3 3 2 2 2 2 2 2 3 3 3 3 3 3 3 3 4 4 4 4 4 1 1 5 7 8 9 9 9 9 10
6 7 8 8 8 7 5 6 8 9 10 11 11 9 8 8 8 8 8 8 8 8 7 6 7 6 6 8 9 9 9 9 7 7 7 6 7 7 7 5 4 5 6 5 4 3 3 3 2 2 2 3 2 2 2 2 2 2 2 1 2 2 3 3 3 3 3 3 3 3 4 4 5 5 5 6 1 3 6 8 9 10 9 10 11
7 6 6 7 8 8 8 8 9 11 11 10 9 9 9 9 8 8 8 9 8 8 7 7 7 7 8 8 9 9 9 9 9 8 8 9 8 8 7 6 6 6 5 4 4 5 3 3 3 3 3 3 3 2 1 2 2 2 2 2 2 2 3 3 3 3 2 3 3 3 3 4 5 5 6 5 6 4 4 8 10 10 10 10 11
4 5 5 5 7 8 8 9 10 10 11 12 12 11 10 10 10 9 9 9 8 8 7 7 7 8 8 8 9 9 10 10 10 10 10 10 9 8 7 8 7 6 5 5 5 5 5 4 4 5 4 3 4 4 4 4 3 3 2 2 1 1 2 3 3 3 3 3 3 3 2 2 3 3 3 5 5 6 3 4 8 9 9 9 10
3 4 3 4 6 6 7 7 8 9 8 9 9 9 9 9 8 8 9 10 9 8 7 7 8 8 8 8 8 8 9 9 9 8 9 9 9 8 7 7 6 5 5 6 6 4 4 4 5 5 4 4 3 3 3 2 2 3 2 2 2 2 2 2 2 2 3 4 4 4 4 3 3 3 3 4 4 4 5 4 4 7 7 5 9
4 4 5 5 5 5 5 6 7 8 9 9 10 11 11 10 8 9 10 10 8 8 7 8 8 8 8 9 9 8 8 9 9 8 8 8 8 8 7 7 6 6 6 7 7 7 7 6 6 5 5 5 4 4 5 5 4 3 3 3 3 3 2 2 2 3 3 3 4 3 2 4 4 4 4 4 4 4 5 5 6 6 6 3 8
4 5 5 5 5 6 6 6 6 6 6 7 7 7 7 8 8 7 9 8 8 8 8 8 8 8 9 9 9 9 9 9 9 9 9 8 8 8 8 7 7 7 7 8 7 6 6 6 6 5 5 5 6 5 6 5 4 3 3 3 2 2 2 3 3 3 4 4 4 3 4 4 5 5 5 4 4 5 5 6 5 6 6 7 6
6 5 5 6 6 5 6 7 4 4 4 5 5 6 8 8 8 9 8 6 7 7 9 8 9 8 9 9 9 8 9 9 10 9 9 8 8 7 7 8 8 8 8 8 8 8 6 4 5 5 5 5 6 6 7 5 4 5 5 3 3 0 4 3 4 6 6 5 4 4 5 6 6 6 5 4 4 4 5 6 6 6 6 6 7
5 5 5 5 6 6 6 6 4 5 6 5 6 7 7 7 8 7 7 7 7 7 8 8 8 8 10 10 9 9 9 10 9 9 9 8 8 7 8 8 8 8 9 9 10 9 10 8 5 5 6 7 7 9 9 8 5 7 7 7 1 1 4 3 5 9 6 5 5 5 5 6 7 6 6 5 6 6 6 6 6 6 6 6 6
4 5 4 5 6 6 6 5 5 5 6 6 6 8 8 8 9 8 8 9 8 8 8 7 8 9 9 10 9 9 9 9 10 9 8 8 8 8 8 8 9 8 8 9 10 10 9 9 9 6 4 6 7 8 9 9 6 7 4 4 3 5 4 3 7 10 4 5 5 6 5 7 8 7 7 7 7 7 6 6 7 6 6 6 6
3 4 4 5 5 5 5 6 6 7 7 7 9 10 11 12 12 11 10 9 8 8 9 9 10 11 11 10 10 10 10 10 11 10 9 9 9 9 8 8 8 8 8 9 9 9 9 8 8 8 6 6 6 7 9 9 7 8 5 4 4 3 3 3 10 4 2 7 6 5 7 7 8 9 7 7 8 7 7 7 7 7 7 7 7
4 3 3 4 4 5 6 6 7 8 7 9 10 10 11 12 11 12 11 10 8 8 8 9 9 9 9 10 10 10 10 10 10 11 10 10 10 9 9 8 8 8 8 9 9 9 8 8 9 8 9 6 6 5 7 8 10 9 6 5 3 4 5 8 11 2 3 4 4 5 6 6 7 8 7 7 7 7 8 9 8 8 8 8 8
3 3 3 3 4 5 5 6 7 6 7 7 6 5 7 9 9 9 9 8 8 7 8 7 7 8 8 7 9 10 10 10 10 10 10 9 10 9 9 8 9 8 8 8 8 8 10 10 9 8 9 9 7 6 6 6 8 9 9 7 4 3 7 8 7 5 9 1 3 4 5 6 6 7 6 6 8 8 8 9 9 9 9 8 8
3 2 3 4 5 5 5 6 6 5 5 5 4 5 6 6 8 9 9 8 10 7 6 6 7 6 7 8 8 9 9 10 10 10 10 10 9 9 9 9 8 8 8 8 9 9 8 8 8 9 8 7 7 8 8 6 6 8 7 6 5 3 4 5 6 7 8 3 3 6 5 6 8 7 5 6 8 7 8 9 9 9 9 8 8
2 2 3 4 5 5 6 6 5 5 5 4 5 4 7 8 10 10 9 10 10 10 7 7 6 6 7 8 7 8 9 9 9 10 10 9 9 9 9 8 8 8 7 8 8 7 7 7 8 8 7 7 8 7 7 7 7 6 7 7 6 4 4 4 4 5 6 10 10 4 2 9 8 5 4 9 8 7 9 9 8 9 8 8 7
2 2 3 4 4 5 6 7 7 7 6 7 6 6 7 8 9 10 11 9 9 8 7 6 7 6 8 7 8 8 8 9 9 9 9 9 9 8 9 9 8 8 7 7 7 8 9 8 8 8 8 7 7 6 5 6 6 6 6 6 6 6 4 4 4 5 6 8 9 10 12 6 5 4 7 8 6 8 9 8 7 8 7 7 7
2 3 3 4 5 5 7 9 8 7 7 8 8 9 8 7 9 10 14 10 8 7 7 7 7 6 8 7 7 7 7 7 8 9 9 9 9 9 8 9 9 8 7 7 7 8 8 8 8 8 7 7 6 6 6 5 4 5 5 4 5 5 4 4 4 6 5 4 8 11 10 14 13 6 6 7 8 9 8 7 7 7 6 7 7
3 3 3 4 4 6 8 9 8 7 7 8 9 9 8 8 9 10 12 12 10 9 8 7 6 6 7 7 7 6 6 6 6 7 8 8 8 8 8 7 7 7 7 7 7 6 6 6 6 7 8 8 6 6 6 6 4 4 5 4 4 4 4 5 5 5 5 6 8 8 9 9 10 14 5 5 7 8 6 6 7 6 6 7 7
Wind_Direction
194 178 165 144 178 174 163 161 156 150 149 151 148 141 137 131 125 121 119 116 118 118 118 120 112 104 98 97 96 98 97 98 90 81 78 71 69 76 81 84 84 87 86 84 80 79 77 77 76 74 70 63 59 57 55 50 46 45 47 51 53 54 55 57 57 59 59 60 63 64 63 64 63 62 64 61 55 43 28 28 9 62 56 55 49
156 173 166 161 171 176 161 163 158 153 150 148 147 144 140 136 128 126 123 123 122 123 122 117 116 116 113 109 110 108 101 93 86 80 73 65 54 60 72 80 86 86 86 82 79 77 76 74 72 70 66 59 54 50 47 47 47 48 49 53 54 55 58 60 58 55 50 47 54 58 62 67 66 67 66 61 56 46 41 46 37 51 58 54 54
155 161 162 158 171 176 159 166 159 156 153 147 148 145 138 135 131 129 125 127 126 128 129 122 120 115 118 115 110 105 99 90 84 80 75 65 63 62 72 85 87 83 84 86 83 79 76 72 65 58 55 52 49 45 41 40 42 40 45 48 51 55 60 65 65 60 55 46 47 98 93 73 67 71 69 63 58 53 44 48 53 52 59 61 57
158 161 165 138 171 194 159 167 158 158 153 148 149 147 143 140 135 135 134 136 136 134 134 129 128 124 121 118 113 107 104 94 87 81 75 70 67 66 71 82 86 85 83 80 80 75 71 68 66 59 53 48 46 44 42 40 39 38 39 44 43 45 55 62 63 62 58 48 38 289 83 93 87 76 75 73 67 58 56 54 56 59 59 58 56
156 158 166 161 175 162 173 162 154 151 154 151 151 148 147 143 139 137 138 143 142 139 135 138 133 129 125 121 119 111 105 98 90 84 80 73 70 73 76 83 88 85 81 80 75 72 69 66 64 61 56 50 45 44 45 44 42 41 39 39 43 41 48 56 63 61 57 33 323 267 81 84 86 74 77 80 74 67 61 61 60 54 54 59 61
161 158 166 169 171 162 163 152 150 146 157 156 153 150 150 146 142 139 138 140 144 141 138 140 134 131 128 123 122 116 108 103 91 84 79 75 70 76 81 86 87 85 82 79 75 69 65 61 60 59 56 49 43 41 44 48 47 45 45 41 38 48 57 70 70 66 77 83 260 69 70 74 85 85 78 86 79 74 70 65 61 55 51 45 59
167 164 166 172 172 164 154 152 148 150 154 155 154 154 153 151 146 142 142 141 145 145 142 138 137 137 133 130 127 121 117 110 102 91 84 78 71 76 84 96 91 83 82 79 76 75 67 60 56 54 52 49 44 39 40 42 48 48 44 41 40 46 64 84 80 69 353 245 48 47 60 62 82 96 84 72 77 76 73 68 63 59 52 48 37
171 170 171 172 181 129 171 146 156 152 153 155 157 155 156 153 150 147 146 147 151 150 147 139 141 143 138 133 129 125 124 117 108 95 84 81 82 84 88 93 88 84 83 76 74 75 73 66 54 49 50 46 44 40 38 39 41 42 44 42 44 52 72 88 81 57 310 17 33 41 44 50 71 86 82 75 73 69 66 60 57 61 57 54 29
172 175 171 174 174 121 159 153 155 154 155 158 156 158 159 159 154 152 152 151 162 150 148 151 149 152 142 143 133 127 127 114 105 97 90 84 84 91 96 97 89 85 84 79 78 71 58 66 48 39 45 45 43 42 39 39 41 41 39 42 46 52 65 73 82 198 213 52 57 60 39 43 61 90 83 78 74 63 34 24 110 79 61 51 55
155 173 174 179 184 133 158 147 158 158 159 162 161 160 162 164 160 159 156 158 166 153 157 155 160 151 157 147 146 136 132 130 122 112 108 99 92 93 110 108 103 89 78 68 62 53 67 62 48 45 45 46 43 40 40 40 40 42 42 42 46 55 65 78 132 236 63 67 66 63 35 327 63 66 81 82 78 66 43 28 40 47 65 70 61
135 159 182 184 175 126 162 135 156 162 167 161 168 169 164 169 166 164 160 164 164 160 163 153 167 167 156 157 156 155 154 141 137 133 127 119 118 115 119 118 115 97 69 61 55 62 68 65 52 52 52 53 49 44 41 40 42 43 43 45 45 52 65 55 286 86 44 42 45 66 101 255 59 60 75 74 75 79 66 34 33 75 68 62 60
150 145 174 193 104 142 183 147 153 170 160 166 177 177 169 170 170 169 168 167 169 167 162 159 167 179 171 168 168 165 159 149 145 138 139 136 134 131 125 121 102 86 81 70 68 66 72 66 63 56 56 58 55 51 45 43 45 46 46 44 46 46 43 354 306 78 71 41 59 23 24 28 44 75 78 84 75 74 66 54 60 65 62 67 64
155 155 165 195 192 147 213 162 148 177 164 180 188 182 180 173 176 174 172 173 168 170 171 164 165 189 181 181 176 171 160 156 150 144 141 146 137 135 133 128 109 97 88 76 69 65 75 74 64 59 58 56 57 54 50 47 48 48 50 48 46 43 34 340 116 92 67 59 70 38 45 66 68 7 64 62 63 60 59 52 50 51 50 65 72
164 171 173 184 188 102 223 194 178 174 176 180 192 191 186 176 182 184 178 172 169 182 172 168 165 185 191 189 172 190 155 160 159 157 145 142 142 138 136 124 113 99 91 80 78 80 84 77 66 61 59 56 56 55 52 48 46 47 49 54 50 37 339 115 53 76 81 83 60 43 14 49 48 341 46 50 55 55 55 54 51 58 61 67 74
149 170 172 185 185 200 156 279 230 204 196 184 195 203 196 182 184 191 183 178 175 178 180 173 177 183 200 192 193 185 168 168 167 174 158 147 145 147 136 123 112 100 86 83 76 70 85 80 71 66 62 56 53 55 54 49 46 43 45 47 47 28 348 76 87 97 90 78 78 62 62 48 7 345 62 64 64 64 59 56 48 44 48 55 57
68 125 195 197 202 192 200 178 255 268 269 204 189 203 202 191 187 191 193 182 177 178 172 172 183 187 194 195 204 182 178 172 167 175 114 202 143 152 140 128 115 102 97 69 82 89 88 80 76 70 61 55 53 55 55 54 50 43 43 44 36 24 10 326 90 73 100 81 78 39 73 62 6 348 142 99 75 72 67 54 50 39 31 29 43
51 67 123 213 247 230 213 210 197 197 231 275 208 189 208 202 194 189 199 184 176 184 170 168 181 183 177 176 185 118 151 150 181 157 154 174 129 158 138 136 124 112 85 86 86 88 86 84 80 72 63 57 54 56 55 56 54 52 47 43 34 27 10 329 61 44 37 55 43 360 50 31 2 17 46 76 70 71 61 50 47 38 24 21 18
30 32 36 17 332 293 261 235 217 213 212 192 224 218 194 206 199 198 195 185 183 180 169 163 166 176 143 118 127 123 128 125 136 139 177 139 130 125 178 146 135 111 107 106 107 105 100 91 81 76 67 60 58 57 53 48 49 53 51 43 40 20 9 323 28 31 29 19 17 15 42 2 350 39 40 54 77 68 56 46 43 34 24 18 16
51 36 29 20 6 344 297 288 262 233 225 221 219 205 209 192 193 199 195 175 183 175 162 161 163 101 93 108 115 138 127 108 102 119 135 137 145 150 203 153 142 123 122 120 117 112 107 92 84 79 69 60 57 58 54 47 41 39 37 32 17 7 325 307 34 19 354 16 7 5 30 345 4 32 43 49 38 27 24 24 27 17 15 19 9
58 45 38 27 7 358 352 309 280 270 248 242 227 228 196 208 185 192 205 200 177 171 161 155 141 122 115 121 130 147 157 137 115 129 140 140 150 228 156 89 157 157 134 127 120 114 106 96 87 80 73 63 60 60 55 53 46 41 32 19 1 296 333 34 17 24 6 29 358 29 2 348 352 344 358 0 17 28 12 4 4 13 27 18 11
36 42 32 21 14 8 350 347 329 280 275 257 254 239 210 194 195 186 196 224 170 178 168 137 140 136 144 137 151 222 229 215 159 194 139 180 180 198 163 162 149 164 141 135 123 117 110 108 106 95 87 82 80 81 65 58 57 45 33 15 302 325 32 21 6 27 22 18 3 35 350 353 356 349 357 6 2 14 16 360 358 1 19 20 13
11 9 22 12 358 359 345 330 318 329 270 253 236 237 227 203 216 213 219 216 207 189 188 219 186 200 163 164 220 235 243 237 229 184 208 177 173 175 185 159 138 149 147 133 123 121 119 123 120 111 106 100 177 146 102 93 74 55 40 326 338 31 29 16 17 23 25 27 7 11 352 357 359 360 356 2 9 21 15 12 4 7 18 12 1
5 358 1 2 357 339 342 324 319 296 315 257 242 230 228 223 234 210 216 223 209 203 230 232 239 230 220 226 236 236 247 251 251 175 313 64 67 148 156 145 150 155 146 131 132 133 137 131 127 132 127 146 180 58 52 13 106 151 187 39 40 35 23 25 19 23 35 24 15 4 358 357 357 359 352 354 0 12 9 1 1 5 4 12 16
349 346 335 345 350 341 332 320 315 310 284 286 235 236 224 218 207 200 229 224 197 215 229 228 226 229 234 237 234 243 246 248 106 130 144 204 182 142 135 147 146 144 145 140 138 156 143 130 130 138 144 153 58 45 37 38 21 11 24 31 42 37 31 26 29 23 21 43 37 4 4 358 356 357 355 350 349 358 359 352 349 351 6 5 3
341 318 336 344 346 339 332 314 310 286 251 272 237 230 232 222 216 211 216 203 251 252 239 224 214 203 210 219 218 224 235 248 231 222 225 227 225 202 180 191 191 181 174 174 180 162 170 141 144 181 101 130 99 58 15 22 27 12 20 20 31 28 28 34 29 21 25 32 48 9 8 3 358 355 352 352 348 345 345 353 348 346 342 346 358
342 341 347 338 347 338 331 320 298 274 235 224 232 223 247 223 213 214 229 250 239 203 232 250 258 247 237 234 225 228 238 238 235 234 235 239 234 230 216 214 209 203 193 222 207 194 207 168 171 168 143 89 88 75 30 12 13 9 13 16 4 10 16 20 22 22 13 21 55 18 8 5 4 357 352 349 349 348 339 329 349 335 325 295 282
347 352 343 344 338 336 333 321 294 274 229 204 214 206 218 230 219 181 223 244 285 289 156 206 230 285 252 238 224 232 244 253 247 230 228 228 228 229 211 214 217 215 207 224 208 188 185 183 196 150 99 99 112 121 113 75 22 7 17 14 8 359 1 10 15 10 5 17 66 33 13 9 9 4 357 349 350 349 346 333 332 339 319 315 259
350 351 351 341 341 332 327 329 310 257 194 184 196 185 201 215 195 223 229 121 64 43 11 33 67 62 20 327 284 254 229 233 245 245 244 248 239 236 237 219 211 202 142 28 6 35 193 204 169 108 116 135 159 161 142 132 106 18 15 8 3 357 5 2 10 359 351 1 25 64 10 13 16 9 4 359 350 347 346 341 330 322 312 313 329
1 355 346 342 335 331 328 346 353 229 164 172 163 169 170 170 187 123 86 84 83 74 44 37 37 38 49 26 4 290 221 213 237 252 269 239 218 221 229 252 243 208 181 143 146 225 240 207 156 140 142 157 166 191 147 123 120 58 353 8 342 356 8 355 360 345 335 333 338 84 7 27 16 14 11 4 357 352 349 346 341 325 312 311 303
1 354 349 341 334 332 342 348 353 92 134 153 141 151 102 105 72 47 37 51 51 49 54 54 41 32 41 32 27 348 330 233 223 182 121 41 51 52 27 23 320 284 218 193 183 227 292 355 87 140 118 174 207 142 205 128 91 58 11 353 349 347 352 346 342 331 337 325 338 70 104 12 13 11 13 7 1 358 353 347 341 338 341 342 339
1 1 351 343 332 340 350 357 7 341 54 68 82 75 54 50 62 46 55 63 66 64 64 59 51 45 43 44 46 39 37 36 87 113 92 78 69 85 94 166 355 358 341 301 36 21 28 13 354 9 138 226 244 94 259 77 73 68 48 360 359 338 345 342 335 335 327 338 341 346 62 116 11 2 1 4 1 359 356 346 343 342 342 347 347
4 357 348 337 345 346 355 13 16 29 45 60 58 60 64 57 64 67 54 55 57 63 62 55 48 44 41 36 39 45 54 65 62 68 74 70 58 44 29 24 34 17 37 37 39 24 31 43 33 9 358 346 30 11 359 358 47 47 28 23 353 343 343 339 333 338 336 339 336 339 338 346 137 18 358 359 358 358 351 350 341 342 341 340 342
358 349 345 354 360 349 8 29 37 43 51 53 54 60 65 61 60 62 59 54 57 55 56 52 49 47 44 41 48 51 53 68 75 70 71 75 74 68 65 50 38 29 46 56 67 66 59 51 47 37 22 354 6 33 359 328 27 40 20 29 339 342 347 326 335 334 344 334 336 336 333 332 332 178 158 8 354 353 352 348 343 342 336 337 343
343 349 353 8 358 337 12 41 46 53 50 54 52 54 51 56 55 57 52 58 57 57 52 55 50 49 55 47 55 56 52 58 65 75 83 86 79 71 66 68 70 74 76 75 68 63 69 62 50 238 71 40 31 22 348 333 24 21 18 13 335 353 335 319 330 331 321 326 330 331 330 333 331 334 345 199 8 352 355 349 348 343 338 339 338
357 2 4 1 11 13 17 53 46 57 54 54 54 50 47 53 52 48 48 54 59 56 43 43 51 48 49 47 46 48 50 51 54 67 65 66 68 57 46 42 51 61 61 58 66 57 69 68 30 356 38 45 52 55 2 347 346 350 356 345 349 342 316 321 319 313 317 335 326 342 339 335 340 336 340 334 133 92 2 350 345 342 341 342 333
9 2 357 9 27 20 34 62 60 64 62 60 60 58 55 54 55 49 51 48 51 53 42 32 39 39 40 44 39 45 45 50 58 64 69 61 62 61 51 38 42 62 64 62 70 73 67 70 52 10 3 50 19 28 317 351 334 342 355 349 352 334 329 322 325 315 345 330 351 353 344 349 345 349 333 329 337 1 27 351 341 337 338 334 331
15 10 9 22 37 27 28 49 57 65 69 70 70 67 63 59 56 52 50 49 50 47 44 37 37 39 39 34 27 37 44 47 53 59 70 67 65 65 57 59 60 62 53 49 50 56 72 73 57 47 47 56 30 10 352 354 347 326 340 346 347 330 331 344 335 351 344 353 353 352 355 1 358 337 343 344 340 333 34 360 330 324 321 323 325
37 35 29 52 60 47 48 49 63 70 74 74 71 72 69 69 63 59 56 54 47 42 38 38 38 35 35 34 25 34 38 45 52 63 71 72 70 64 57 49 53 55 60 59 55 39 45 60 65 44 41 51 43 12 339 324 316 319 336 345 349 333 332 339 7 4 15 9 3 357 360 360 11 6 2 355 344 348 335 326 282 273 272 298 319
47 47 51 55 73 71 72 65 70 78 87 88 91 87 81 76 72 63 54 50 44 41 38 43 39 38 36 27 25 31 30 35 40 49 63 67 68 65 62 53 56 53 53 51 42 37 36 37 63 73 60 49 34 11 348 330 324 327 336 339 332 339 333 15 24 48 38 21 14 13 20 18 16 24 16 3 8 351 344 337 342 340 336 325 314
47 50 56 59 76 82 81 74 68 84 96 100 99 94 89 81 74 66 61 52 49 47 42 43 39 40 34 33 32 36 33 33 35 44 54 57 61 58 58 51 53 56 53 50 47 46 39 45 44 59 69 63 42 15 359 338 317 293 322 323 336 338 27 46 71 57 15 14 19 28 35 35 35 29 24 12 16 6 356 351 345 342 338 332 316
53 50 60 57 54 63 82 75 54 52 89 93 88 97 96 93 78 70 69 55 54 56 53 44 45 43 37 40 39 38 35 35 35 41 51 58 57 54 53 51 54 55 57 54 49 47 42 44 64 56 47 52 42 18 4 313 331 336 336 318 315 285 81 84 81 22 9 24 34 31 35 39 30 22 15 8 6 11 7 360 356 350 344 341 335
51 53 61 59 63 65 72 77 65 64 65 73 86 77 68 74 88 78 76 60 54 54 56 47 47 44 41 40 42 39 39 41 36 41 48 53 58 58 52 49 51 56 55 51 43 41 36 32 18 71 52 48 47 20 11 350 16 352 333 331 268 351 91 94 38 4 21 37 20 38 38 37 27 16 6 1 1 356 1 359 355 346 343 339 339
66 66 64 79 73 75 74 76 73 78 69 74 83 86 85 83 90 90 85 81 66 64 66 60 53 53 46 43 41 40 40 41 39 38 40 43 52 57 54 52 49 52 58 53 46 43 35 33 31 27 58 61 63 37 28 22 4 336 294 298 358 347 139 112 5 354 52 21 30 50 34 17 21 12 354 351 355 354 357 352 344 340 336 335 329
77 77 68 75 74 73 76 81 80 80 79 75 86 87 91 93 89 92 88 85 86 77 73 61 54 50 47 42 41 39 40 44 39 40 44 43 46 53 56 55 54 53 59 60 51 45 37 33 33 34 30 63 51 52 37 32 25 356 11 340 315 319 335 29 347 333 76 13 42 37 18 8 11 359 352 357 356 353 348 347 341 336 331 327 325
64 54 48 64 75 79 80 84 84 85 89 95 97 104 105 101 102 101 102 100 88 77 69 58 54 56 55 44 39 40 44 46 44 42 44 45 43 46 51 53 55 52 58 61 56 46 41 37 33 42 35 41 56 58 51 41 39 27 14 359 355 353 19 333 329 81 23 3 48 7 14 14 4 356 351 354 354 351 349 343 341 335 331 328 327
66 41 39 59 82 92 92 92 90 89 92 96 108 120 117 120 126 121 111 97 83 68 61 65 59 56 57 56 48 44 46 48 47 46 45 46 47 44 46 51 53 52 54 60 58 52 41 37 29 32 38 33 49 54 60 59 49 42 42 51 27 2 337 328 344 331 336 58 355 349 5 3 360 349 345 351 351 347 350 343 336 334 331 329 328
61 51 61 69 80 85 85 86 91 89 75 85 81 103 98 92 90 91 95 99 102 85 86 80 82 76 70 63 59 48 44 50 47 46 46 44 46 42 43 46 49 52 51 57 56 52 44 35 28 35 31 26 32 53 40 32 57 46 40 50 50 42 2 356 3 330 336 337 330 338 346 350 349 335 336 355 344 341 346 338 332 331 331 331 332
71 79 81 79 83 88 93 91 89 88 82 88 80 85 102 101 101 98 93 95 97 105 97 88 83 84 81 72 68 58 49 47 49 45 44 44 44 45 41 44 46 44 46 51 52 48 52 46 39 37 38 36 32 42 40 27 30 27 20 29 30 37 40 45 22 355 325 321 323 333 345 339 340 336 348 345 343 345 336 331 326 327 328 329 327
78 80 88 90 94 98 99 98 95 93 88 89 95 89 96 102 103 108 102 97 103 104 102 98 92 87 85 76 72 69 62 53 49 48 43 43 43 44 42 42 41 38 39 46 47 48 48 45 38 37 38 39 39 30 40 38 29 22 7 17 13 11 4 17 9 360 343 325 317 332 324 328 323 332 333 327 337 336 325 315 314 315 318 323 326
91 98 106 112 113 112 107 104 98 96 98 99 101 99 97 102 107 109 112 114 114 111 108 102 96 90 83 77 73 69 64 60 52 47 48 44 43 44 44 41 39 36 34 35 36 39 40 42 42 40 33 41 37 36 36 28 37 30 21 6 13 3 1 2 3 352 332 311 308 320 321 326 326 323 318 317 325 324 320 312 314 315 314 324 327
117 123 118 122 120 115 114 103 101 103 104 103 105 103 103 107 109 114 115 119 118 118 115 105 101 95 89 81 77 73 67 64 59 52 48 45 46 44 46 45 43 41 37 35 33 33 33 38 39 42 41 35 29 26 34 28 12 33 21 18 15 9 357 346 339 342 327 316 315 306 311 309 307 311 313 315 310 311 303 312 306 308 316 318 320